EW2280 Weather Reports


Display with metric or nautical units.
time (UTC)temp
F
wind
direction
speed
MPH
gust
MPH
rain 1hr
in
rain 24hr
in
rain mn
in
humidity
%
barometer
mb
20260510220044 83 212 0.0 0.0 0.00 0.00 0.00 53 1015.6
20260510214543 84 212 0.0 0.0 0.00 0.00 0.00 52 1015.7
20260510213044 84 191 0.0 0.0 0.00 0.00 0.00 54 1015.7
20260510211522 83 127 0.0 1.0 0.00 0.00 0.00 54 1015.6
20260510210019 80 131 0.0 0.0 0.00 0.00 0.00 63 1015.9
20260510204507 80 130 0.0 1.0 0.00 0.00 0.00 62 1016.1
20260510203009 81 139 0.0 1.0 0.00 0.00 0.00 57 1016.2
20260510201504 82 257 0.0 2.0 0.00 0.00 0.00 55 1016.4
20260510200003 83 234 0.0 2.0 0.00 0.00 0.00 57 1016.5
20260510194501 82 82 0.0 6.0 0.00 0.00 0.00 52 1016.5
20260510193102 82 4 1.0 4.0 0.00 0.00 0.00 56 1016.6
20260510191557 81 262 0.0 3.0 0.00 0.00 0.00 59 1016.6
20260510184606 80 294 0.0 4.0 0.00 0.00 0.00 61 1017.0
20260510183041 81 323 0.0 2.0 0.00 0.00 0.00 63 1017.0
20260510181552 79 243 0.0 2.0 0.00 0.00 0.00 65 1017.1
20260510180043 77 47 1.0 4.0 0.00 0.00 0.00 69 1017.3
20260510174531 74 200 0.0 0.0 0.00 0.00 0.00 80 1017.6
20260510173031 75 200 0.0 0.0 0.00 0.00 0.00 77 1017.7
20260510171530 77 200 0.0 1.0 0.00 0.00 0.00 75 1017.6
20260510170028 78 280 0.0 5.0 0.00 0.00 0.00 77 1017.5
20260510164508 76 278 1.0 6.0 0.00 0.00 0.00 79 1017.6
20260510163006 76 278 1.0 6.0 0.00 0.00 0.00 82 1017.8
20260510161546 75 273 1.0 3.0 0.00 0.00 0.00 84 1017.8
20260510160049 74 242 0.0 5.0 0.00 0.00 0.00 86 1017.8
20260510154545 73 274 1.0 5.0 0.00 0.00 0.00 88 1017.7
20260510153041 72 161 0.0 3.0 0.00 0.00 0.00 92 1017.7
20260510151521 71 181 0.0 3.0 0.00 0.00 0.00 96 1017.7
20260510150019 69 261 0.0 1.0 0.00 0.00 0.00 99 1017.8
20260510144529 66 264 0.0 2.0 0.00 0.00 0.00 100 1017.9
20260510143011 65 259 0.0 1.0 0.00 0.00 0.00 100 1017.9
20260510141509 64 274 0.0 1.0 0.00 0.00 0.00 100 1017.8
20260510140005 63 18 0.0 1.0 0.00 0.00 0.00 100 1017.8
20260510134552 62 18 0.0 1.0 0.00 0.00 0.00 100 1017.9
20260510133049 61 352 0.0 0.0 0.00 0.00 0.00 100 1017.8
20260510131545 60 351 0.0 1.0 0.00 0.00 0.00 100 1017.9
20260510130044 59 50 0.0 1.0 0.00 0.00 0.00 100 1017.8
20260510124545 59 50 0.0 1.0 0.00 0.00 0.00 100 1017.8
20260510123037 58 71 0.0 0.0 0.00 0.00 0.00 100 1017.6
20260510121534 57 71 0.0 1.0 0.00 0.00 0.00 100 1017.4
20260510120032 57 160 0.0 0.0 0.00 0.00 0.00 100 1017.1
20260510114517 56 160 0.0 0.0 0.00 0.00 0.00 100 1016.9
20260510113020 55 160 0.0 0.0 0.00 0.00 0.00 100 1016.7
20260510111512 55 160 0.0 0.0 0.00 0.00 0.00 100 1016.3
20260510110015 54 160 0.0 0.0 0.00 0.00 0.00 100 1016.3
20260510104508 54 160 0.0 0.0 0.00 0.00 0.00 100 1016.0
20260510103005 53 160 0.0 0.0 0.00 0.00 0.00 100 1015.6
20260510101504 53 160 0.0 0.0 0.00 0.00 0.00 100 1015.7
20260510100004 53 160 0.0 0.0 0.00 0.00 0.00 100 1015.4
20260510094556 53 160 0.0 0.0 0.00 0.00 0.00 100 1015.4
20260510093049 53 160 0.0 0.0 0.00 0.00 0.00 100 1015.4
20260510091536 53 160 0.0 0.0 0.00 0.00 0.00 100 1015.3
20260510090035 53 160 0.0 0.0 0.00 0.00 0.00 100 1015.5
20260510084544 53 160 0.0 0.0 0.00 0.00 0.00 100 1015.3
20260510083029 53 160 0.0 0.0 0.00 0.00 0.00 100 1015.1
20260510081532 53 160 0.0 0.0 0.00 0.00 0.00 100 1014.8
20260510080025 53 160 0.0 0.0 0.00 0.00 0.00 99 1014.7
20260510074525 53 160 0.0 0.0 0.00 0.00 0.00 100 1014.6
20260510073036 53 160 0.0 0.0 0.00 0.00 0.00 99 1014.5
20260510071504 53 160 0.0 0.0 0.00 0.00 0.00 99 1014.5
20260510070008 53 160 0.0 0.0 0.00 0.00 0.00 99 1014.6
20260510064552 54 160 0.0 0.0 0.00 0.00 0.00 99 1014.5
20260510063051 54 160 0.0 0.0 0.00 0.00 0.00 99 1014.4
20260510061601 54 160 0.0 0.0 0.00 0.00 0.00 99 1014.5
20260510060048 54 160 0.0 0.0 0.00 0.00 0.00 99 1014.5
20260510054545 54 160 0.0 0.0 0.00 0.00 0.00 99 1014.6
20260510053053 55 160 0.0 0.0 0.00 0.00 0.00 99 1014.6
20260510051543 55 160 0.0 0.0 0.00 0.00 0.00 98 1014.6
20260510050040 55 160 0.0 0.0 0.00 0.00 0.00 98 1014.7
20260510044523 55 160 0.0 0.0 0.00 0.00 0.00 98 1014.7
20260510043022 55 160 0.0 0.0 0.00 0.00 0.00 98 1014.6
20260510041511 55 160 0.0 0.0 0.00 0.00 0.00 98 1014.7
20260510040010 56 160 0.0 0.0 0.00 0.00 0.00 98 1014.6
20260510034509 56 160 0.0 0.0 0.00 0.00 0.00 98 1014.6
20260510033008 56 160 0.0 0.0 0.00 0.00 0.00 97 1014.5
20260510031508 57 160 0.0 0.0 0.00 0.00 0.00 97 1014.6
20260510030006 57 160 0.0 0.0 0.00 0.00 0.00 97 1014.4
20260510024504 58 160 0.0 0.0 0.00 0.00 0.00 96 1014.2
20260510023002 58 160 0.0 0.0 0.00 0.00 0.00 96 1013.9
20260510021559 59 160 0.0 0.0 0.00 0.00 0.00 96 1013.6
20260510020046 59 160 0.0 0.0 0.00 0.00 0.00 95 1013.3
20260510014546 60 160 0.0 0.0 0.00 0.00 0.00 94 1012.9
20260510013050 61 160 0.0 0.0 0.00 0.00 0.00 94 1012.7
20260510011544 62 160 0.0 0.0 0.00 0.00 0.00 93 1012.4
20260510010042 64 160 0.0 0.0 0.00 0.00 0.00 91 1012.2
20260510004542 65 160 0.0 0.0 0.00 0.00 0.00 89 1012.0
20260510003043 67 160 0.0 0.0 0.00 0.00 0.00 88 1011.8
20260510001540 69 160 0.0 0.0 0.00 0.00 0.00 86 1011.6
20260510000028 71 160 0.0 0.0 0.00 0.00 0.00 83 1011.5
20260509234535 72 160 0.0 0.0 0.00 0.00 0.00 77 1011.7
20260509233027 73 160 0.0 0.0 0.00 0.00 0.00 76 1011.7
20260509231528 72 160 0.0 0.0 0.00 0.00 0.00 75 1011.7
20260509230026 73 160 0.0 0.0 0.00 0.00 0.00 74 1011.5
20260509224524 74 160 0.0 0.0 0.00 0.00 0.00 73 1011.5
20260509223024 76 160 0.0 0.0 0.00 0.00 0.00 72 1011.3
20260509221523 76 191 0.0 1.0 0.00 0.00 0.00 71 1011.2